timestamp,surface_pressure_avg,surface_temp_avg,battery_voltage,lat,long
2022-03-06 00:09:01+00:00,316.9163,0.4,12.01,47.84626,-54.09684
2022-03-06 00:19:01+00:00,324.4397,0.4,12.01,47.84626,-54.09684
2022-03-06 00:29:01+00:00,330.9513,0.4,12.01,47.84626,-54.09684
2022-03-06 00:39:01+00:00,337.9179,0.4,12.01,47.84626,-54.09684
2022-03-06 00:49:01+00:00,340.1979,0.4,12.01,47.84626,-54.09684
2022-03-06 00:59:01+00:00,344.093,0.37,12.01,47.84626,-54.09684
2022-03-06 01:09:01+00:00,350.1497,0.37,12.01,47.84626,-54.09684
2022-03-06 01:19:01+00:00,351.8763,0.35,12.01,47.84626,-54.09684
2022-03-06 01:29:01+00:00,346.5979,0.33,12.01,47.84626,-54.09684
2022-03-06 01:39:01+00:00,345.9147,0.35,12.01,47.84626,-54.09684
2022-03-06 01:49:01+00:00,348.6797,0.35,12.01,47.84626,-54.09684
2022-03-06 01:59:01+00:00,346.5662,0.37,12.01,47.84626,-54.09684
2022-03-06 02:09:01+00:00,339.6113,0.4,12.01,47.84626,-54.09684
2022-03-06 02:19:00+00:00,341.9346,0.4,11.93,47.84626,-54.09684
2022-03-06 02:29:00+00:00,343.3730000000001,0.38,11.93,47.84626,-54.09684
2022-03-06 02:39:00+00:00,341.6496,0.38,11.93,47.84626,-54.09684
2022-03-06 02:49:00+00:00,340.86300000000006,0.38,11.93,47.84626,-54.09684
2022-03-06 02:59:00+00:00,342.8964,0.34,11.93,47.84626,-54.09684
2022-03-06 03:09:00+00:00,337.6280000000001,0.3,11.93,47.84626,-54.09684
2022-03-06 03:19:00+00:00,330.0696,0.3,12.01,47.84626,-54.09684
2022-03-06 03:29:00+00:00,329.1797,0.3,12.01,47.84626,-54.09684
2022-03-06 03:39:00+00:00,328.963,0.3,12.01,47.84626,-54.09684
2022-03-06 03:49:00+00:00,322.3314,0.3,12.01,47.84626,-54.09684
2022-03-06 03:59:00+00:00,317.5463,0.3,12.01,47.84626,-54.09684
2022-03-06 04:09:00+00:00,316.8064,0.3,12.01,47.84626,-54.09684
2022-03-06 04:19:00+00:00,313.2263,0.3,11.93,47.84626,-54.09684
2022-03-06 04:29:00+00:00,305.428,0.3,11.93,47.84626,-54.09684
2022-03-06 04:39:00+00:00,295.678,0.3,11.93,47.84626,-54.09684
2022-03-06 04:49:00+00:00,287.5231,0.3,11.93,47.84626,-54.09684
2022-03-06 04:59:00+00:00,276.9581,0.3,11.93,47.84626,-54.09684
2022-03-06 05:09:00+00:00,265.7631,0.3,11.93,47.84626,-54.09684
2022-03-06 05:19:00+00:00,256.5364,0.3,11.93,47.84626,-54.09684
2022-03-06 05:29:00+00:00,248.6747,0.3,11.93,47.84626,-54.09684
2022-03-06 05:39:00+00:00,237.5514,0.3,11.93,47.84626,-54.09684
2022-03-06 05:49:00+00:00,226.6548,0.3,11.93,47.84626,-54.09684
2022-03-06 05:59:00+00:00,221.9581,0.3,11.93,47.84626,-54.09684
2022-03-06 06:09:00+00:00,215.9281,0.3,11.93,47.84626,-54.09684
2022-03-06 06:19:00+00:00,201.4431,0.3,11.93,47.84626,-54.09684
2022-03-06 06:29:00+00:00,191.2681,0.3,11.93,47.84626,-54.09684
2022-03-06 06:39:00+00:00,188.4331,0.3,11.93,47.84626,-54.09684
2022-03-06 06:49:00+00:00,182.7165,0.29,11.93,47.84626,-54.09684
2022-03-06 06:59:00+00:00,176.2215,0.29,11.93,47.84626,-54.09684
2022-03-06 07:09:00+00:00,174.4448,0.28,11.93,47.84626,-54.09684
2022-03-06 07:19:00+00:00,174.1015,0.28,11.93,47.84626,-54.09684
2022-03-06 07:29:00+00:00,172.1148,0.2,11.93,47.84626,-54.09684
2022-03-06 07:39:00+00:00,171.2881,0.2,11.93,47.84626,-54.09684
2022-03-06 07:49:00+00:00,171.5298,0.2,11.93,47.84626,-54.09684
2022-03-06 07:59:00+00:00,171.5198,0.2,11.93,47.84626,-54.09684
2022-03-06 08:09:00+00:00,172.1098,0.2,11.93,47.84626,-54.09684
2022-03-06 08:19:00+00:00,174.1732,0.26,11.93,47.84626,-54.09684
2022-03-06 08:29:00+00:00,177.1815,0.3,11.93,47.84626,-54.09684
2022-03-06 08:39:00+00:00,178.5315,0.3,11.93,47.84626,-54.09684
2022-03-06 08:49:00+00:00,180.2865,0.3,11.93,47.84626,-54.09684
2022-03-06 08:59:00+00:00,185.6748,0.3,11.93,47.84626,-54.09684
2022-03-06 09:09:00+00:00,191.3448,0.3,11.93,47.84626,-54.09684
2022-03-06 09:19:00+00:00,196.2298,0.3,11.93,47.84626,-54.09684
2022-03-06 09:29:00+00:00,203.7281,0.36,11.93,47.84626,-54.09684
2022-03-06 09:39:00+00:00,210.5264,0.38,11.93,47.84626,-54.09684
2022-03-06 09:49:00+00:00,213.3264,0.39,11.93,47.84626,-54.09684
2022-03-06 09:59:00+00:00,217.9481,0.39,11.93,47.84626,-54.09684
2022-03-06 10:09:00+00:00,222.9798,0.39,11.93,47.84626,-54.09684
2022-03-06 10:19:00+00:00,228.3781,0.39,11.93,47.84626,-54.09684
2022-03-06 10:29:00+00:00,232.9114,0.39,11.93,47.84626,-54.09684
2022-03-06 10:39:00+00:00,236.9247,0.36,11.93,47.84626,-54.09684
2022-03-06 10:49:00+00:00,240.1914,0.3,11.93,47.84626,-54.09684
2022-03-06 10:59:00+00:00,244.3164,0.3,11.93,47.84626,-54.09684
2022-03-06 11:09:00+00:00,249.8631,0.3,11.93,47.84626,-54.09684
2022-03-06 11:19:00+00:00,253.0564,0.3,11.93,47.84626,-54.09684
2022-03-06 11:29:00+00:00,256.8731,0.3,11.93,47.84626,-54.09684
2022-03-06 11:39:00+00:00,261.4131,0.29,11.93,47.84626,-54.09684
2022-03-06 11:49:00+00:00,270.4197,0.28,11.93,47.84626,-54.09684
2022-03-06 11:59:00+00:00,280.6431,0.28,11.93,47.84626,-54.09684
2022-03-06 12:09:00+00:00,286.1613,0.2,11.93,47.84626,-54.09684
2022-03-06 12:19:00+00:00,291.1963,0.2,11.93,47.84626,-54.09684
2022-03-06 12:29:00+00:00,301.058,0.2,11.93,47.84626,-54.09684
2022-03-06 12:39:00+00:00,311.113,0.2,11.93,47.84626,-54.09684
2022-03-06 12:49:00+00:00,315.4596,0.2,11.93,47.84626,-54.09684
2022-03-06 12:59:00+00:00,323.023,0.2,11.93,47.84626,-54.09684
2022-03-06 13:09:00+00:00,332.798,0.2,11.93,47.84626,-54.09684
2022-03-06 13:19:00+00:00,339.3646,0.2,12.01,47.84626,-54.09684
2022-03-06 13:29:00+00:00,342.6980000000001,0.2,12.01,47.84626,-54.09684
2022-03-06 13:39:00+00:00,348.4913,0.26,12.01,47.84626,-54.09684
2022-03-06 13:49:00+00:00,352.1329,0.3,12.01,47.84626,-54.09684
2022-03-06 13:59:00+00:00,352.783,0.3,12.01,47.84626,-54.09684
2022-03-06 14:09:00+00:00,355.1312,0.3,12.01,47.84626,-54.09684
2022-03-06 14:19:00+00:00,356.0746,0.3,12.01,47.84626,-54.09684
2022-03-06 14:29:00+00:00,353.50800000000015,0.32,12.01,47.84626,-54.09684
2022-03-06 14:39:00+00:00,354.2097,0.37,12.01,47.84626,-54.09684
2022-03-06 14:49:00+00:00,354.9446,0.38,12.01,47.84626,-54.09684
2022-03-06 14:59:00+00:00,354.723,0.38,12.01,47.84626,-54.09684
2022-03-06 15:09:00+00:00,349.3796,0.39,12.01,47.84626,-54.09684
2022-03-06 15:19:00+00:00,344.9713,0.4,12.01,47.84626,-54.09684
2022-03-06 15:29:00+00:00,342.9763,0.4,12.01,47.84626,-54.09684
2022-03-06 15:39:00+00:00,336.1296,0.4,12.01,47.84626,-54.09684
2022-03-06 15:49:00+00:00,329.05300000000005,0.43,12.01,47.84626,-54.09684
2022-03-06 15:59:00+00:00,331.8847,0.4,12.01,47.84626,-54.09684
2022-03-06 16:09:00+00:00,332.283,0.4,12.01,47.84626,-54.09684
2022-03-06 16:19:00+00:00,321.7963,0.45,12.01,47.84626,-54.09684
2022-03-06 16:29:00+00:00,314.5497,0.48,12.01,47.84626,-54.09684
2022-03-06 16:39:00+00:00,318.2713,0.47,12.01,47.84626,-54.09684
2022-03-06 16:49:00+00:00,314.3597,0.47,12.01,47.84626,-54.09684
2022-03-06 16:59:00+00:00,296.653,0.5,12.01,47.84626,-54.09684
2022-03-06 17:09:00+00:00,288.4664,0.5,12.01,47.84626,-54.09684
2022-03-06 17:19:00+00:00,286.9364,0.5,12.01,47.84626,-54.09684
2022-03-06 17:29:00+00:00,278.6497,0.5,12.01,47.84626,-54.09684
2022-03-06 17:39:00+00:00,261.468,0.5,12.01,47.84626,-54.09684
2022-03-06 17:49:00+00:00,253.3898,0.5,12.01,47.84626,-54.09684
2022-03-06 17:59:00+00:00,248.6614,0.5,12.01,47.84626,-54.09684
2022-03-06 18:09:00+00:00,235.6331,0.54,12.01,47.84626,-54.09684
2022-03-06 18:19:00+00:00,220.9931,0.55,12.01,47.84626,-54.09684
2022-03-06 18:29:00+00:00,213.7431,0.54,12.01,47.84626,-54.09684
2022-03-06 18:39:00+00:00,206.5898,0.54,12.01,47.84626,-54.09684
2022-03-06 18:49:00+00:00,197.8415,0.52,12.01,47.84626,-54.09684
2022-03-06 18:59:00+00:00,190.6815,0.5,12.01,47.84626,-54.09684
2022-03-06 19:09:00+00:00,187.6998,0.5,12.01,47.84626,-54.09684
2022-03-06 19:19:00+00:00,188.2181,0.5,12.01,47.84626,-54.09684
2022-03-06 19:29:00+00:00,187.0448,0.5,12.01,47.84626,-54.09684
2022-03-06 19:39:00+00:00,185.0565,0.51,12.01,47.84626,-54.09684
2022-03-06 19:49:00+00:00,183.5965,0.5,12.01,47.84626,-54.09684
2022-03-06 19:59:00+00:00,180.2081,0.5,12.01,47.84626,-54.09684
2022-03-06 20:09:00+00:00,178.2598,0.5,12.01,47.84626,-54.09684
2022-03-06 20:19:00+00:00,178.0432,0.5,12.01,47.84626,-54.09684
2022-03-06 20:29:00+00:00,179.4048,0.54,12.01,47.84626,-54.09684
2022-03-06 20:39:00+00:00,183.3831,0.56,12.01,47.84626,-54.09684
2022-03-06 20:49:00+00:00,186.5865,0.59,12.01,47.84626,-54.09684
2022-03-06 20:59:00+00:00,195.2448,0.59,12.01,47.84626,-54.09684
2022-03-06 21:09:00+00:00,208.4981,0.6,12.01,47.84626,-54.09684
2022-03-06 21:19:01+00:00,215.5414,0.6,12.01,47.84626,-54.09684
2022-03-06 21:29:01+00:00,220.9415,0.6,12.01,47.84626,-54.09684
2022-03-06 21:39:01+00:00,223.2715,0.6,12.01,47.84626,-54.09684
2022-03-06 21:49:01+00:00,225.1781,0.6,12.01,47.84626,-54.09684
2022-03-06 21:59:01+00:00,225.4397,0.59,12.01,47.84626,-54.09684
2022-03-06 22:09:01+00:00,226.6081,0.59,12.01,47.84626,-54.09684
2022-03-06 22:19:01+00:00,234.1114,0.58,12.01,47.84626,-54.09684
2022-03-06 22:29:01+00:00,246.2381,0.58,12.01,47.84626,-54.09684
2022-03-06 22:39:01+00:00,251.4714,0.57,12.01,47.84626,-54.09684
2022-03-06 22:49:01+00:00,252.428,0.55,12.01,47.84626,-54.09684
2022-03-06 22:59:01+00:00,258.3931,0.53,12.01,47.84626,-54.09684
2022-03-06 23:09:01+00:00,266.9864,0.51,12.01,47.84626,-54.09684
2022-03-06 23:19:01+00:00,269.1047,0.5,12.01,47.84626,-54.09684
2022-03-06 23:29:01+00:00,270.7448,0.5,12.01,47.84626,-54.09684
2022-03-06 23:39:01+00:00,274.4947,0.5,12.01,47.84626,-54.09684
2022-03-06 23:49:01+00:00,281.2114,0.5,12.01,47.84626,-54.09684
2022-03-06 23:59:01+00:00,283.6063,0.5,12.01,47.84626,-54.09684
